Toledo Metcalf, OH

12:45 PM EST on November 15, 2019 (GMT -0500)
Metcalf

Weather History for KTDZ - September, 2019

Change the Weather History Date:

Saturday, September 21, 2019

  Actual Average (KTOL) Record (KTOL)
Temperature  
Mean Temperature 76 °F -  
Max Temperature 87 °F 69 °F 93 °F (1970)
Min Temperature 66 °F 50 °F 30 °F (1962)
Cooling Degree Days 11    
Growing Degree Days 26 (Base 50)    
Moisture  
Dew Point 68 °F    
Average Humidity 80    
Maximum Humidity 93    
Minimum Humidity 57    
Precipitation  
Precipitation 0.09 in - - ()
Sea Level Pressure  
Sea Level Pressure 30.14 in    
Wind  
Wind Speed 4 mph ()    
Max Wind Speed 16 mph    
Max Gust Speed 26 mph    
Visibility 8.1 miles    
Events Rain , Thunderstorm    
Averages and records for this station are not official NWS values.
T = Trace of Precipitation, MM = Missing Value Source: Averaged Metar Reports

Daily Weather History Graph

Daily Weather History Graph

Search for Another Location

Airport or City:

Astronomy

Sep. 21, 2019 Rise Set
Actual Time 7:20 AM EDT 7:33 PM EDT
Civil Twilight 6:52 AM EDT 8:00 PM EDT
Nautical Twilight 6:19 AM EDT 8:33 PM EDT
Astronomical Twilight 5:46 AM EDT 9:06 PM EDT
Moon No Moon Rise 2:30 PM EDT (9/21)
Length of Visible Light 13h 08m
Length of Day
12h 13m
Waning Gibbous, 55% of the Moon is Illuminated
Sep 21
Waning Gibbous
Sep 21
Last Quarter
Sep 28
New
Oct 5
First Quarter
Oct 13
Full

Hourly Weather History & Observations

Time (EDT) Temp. Heat Index Dew Point Humidity Pressure Visibility Wind Dir Wind Speed Gust Speed Precip Events Conditions
12:53 AM 70.0 °F - 64.9 °F 84% 30.14 in 10.0 mi SSE 3.5 mph - N/A   Scattered Clouds
1:53 AM 68.0 °F - 64.9 °F 90% 30.14 in 8.0 mi Calm Calm - N/A   Partly Cloudy
2:53 AM 69.1 °F - 64.9 °F 87% 30.15 in 8.0 mi Calm Calm - N/A   Scattered Clouds
4:53 AM 68.0 °F - 64.9 °F 90% 30.14 in 7.0 mi Calm Calm - N/A   Clear
5:53 AM 68.0 °F - 66.0 °F 93% 30.15 in 6.0 mi Calm Calm - N/A   Mostly Cloudy
6:53 AM 66.9 °F - 64.9 °F 93% 30.17 in 6.0 mi Calm Calm - N/A   Scattered Clouds
7:53 AM 66.9 °F - 64.0 °F 90% 30.18 in 5.0 mi Calm Calm - N/A   Clear
8:53 AM 71.1 °F - 66.0 °F 84% 30.19 in 6.0 mi WSW 4.6 mph - N/A   Haze
9:53 AM 75.0 °F - 66.0 °F 73% 30.19 in 8.0 mi WSW 5.8 mph - N/A   Clear
10:53 AM 80.1 °F 82.7 °F 68.0 °F 67% 30.19 in 10.0 mi SW 3.5 mph - N/A   Clear
11:53 AM 82.9 °F 87.0 °F 70.0 °F 65% 30.18 in 10.0 mi SW 9.2 mph - N/A   Scattered Clouds
12:53 PM 84.9 °F 89.4 °F 70.0 °F 61% 30.16 in 10.0 mi SSW 12.7 mph - N/A   Partly Cloudy
1:53 PM 84.9 °F 90.1 °F 71.1 °F 63% 30.15 in 10.0 mi SSW 16.1 mph - N/A   Scattered Clouds
2:53 PM 86.0 °F 90.1 °F 69.1 °F 57% 30.12 in 10.0 mi SW 12.7 mph - N/A   Partly Cloudy
3:53 PM 84.0 °F 87.8 °F 69.1 °F 61% 30.12 in 10.0 mi SSW 10.4 mph - N/A   Scattered Clouds
4:38 PM 75.9 °F - 69.1 °F 79% 30.15 in 1.8 mi SSW 12.7 mph 26.5 mph 0.06 in Rain Heavy Rain
4:45 PM 75.0 °F - 70.0 °F 84% 30.14 in 1.2 mi South 8.1 mph - 0.09 in Rain , Thunderstorm Rain
4:49 PM 75.2 °F - 71.6 °F 89% 30.14 in 3.0 mi South 10.4 mph - 0.09 in Rain , Thunderstorm Light Rain
4:53 PM 75.0 °F - 71.1 °F 87% 30.13 in 9.0 mi South 10.4 mph - 0.09 in Rain , Thunderstorm Light Rain
5:06 PM 75.9 °F - 71.1 °F 85% 30.13 in 10.0 mi South 8.1 mph - 0.00 in   Scattered Clouds
5:53 PM 77.0 °F - 69.1 °F 76% 30.12 in 10.0 mi SSW 3.5 mph - 0.00 in   Scattered Clouds
6:53 PM 77.0 °F - 70.0 °F 79% 30.11 in 10.0 mi Calm Calm - N/A   Clear
7:53 PM 75.0 °F - 70.0 °F 84% 30.10 in 10.0 mi ESE 4.6 mph - N/A   Clear
8:53 PM 75.0 °F - 71.1 °F 87% 30.11 in 10.0 mi SSE 5.8 mph - N/A   Clear
9:53 PM 75.9 °F - 70.0 °F 82% 30.12 in 10.0 mi South 6.9 mph - N/A   Clear
10:53 PM 73.9 °F - 68.0 °F 82% 30.11 in 10.0 mi South 6.9 mph - N/A   Clear
11:53 PM 73.9 °F - 69.1 °F 85% 30.10 in 10.0 mi South 9.2 mph - N/A   Clear